CW9244 Weather Reports


Display with metric or nautical units.
time (UTC)temp
F
wind
direction
speed
MPH
gust
MPH
rain 1hr
in
rain 24hr
in
rain mn
in
humidity
%
barometer
mb
20260507113818 53 15 0.0 2.0 0.01 0.34 0.22 93 1025.9
20260507112915 53 337 0.0 0.0 0.01 0.34 0.22 93 1026.0
20260507111915 52 180 0.0 0.0 0.02 0.34 0.22 93 1025.7
20260507110914 52 337 0.0 0.0 0.02 0.34 0.22 93 1025.6
20260507105915 52 337 0.0 1.0 0.01 0.33 0.21 93 1025.8
20260507104916 52 337 0.0 0.0 0.01 0.33 0.21 93 1025.7
20260507103916 52 315 0.0 0.0 0.01 0.33 0.21 93 1025.6
20260507102916 52 315 0.0 1.0 0.01 0.33 0.21 93 1025.5
20260507102015 52 315 0.0 0.0 0.00 0.32 0.20 92 1025.2
20260507101014 52 337 1.0 1.0 0.00 0.32 0.20 92 1025.2
20260507095016 52 337 2.0 5.0 0.00 0.32 0.20 92 1024.9
20260507094015 52 315 1.0 2.0 0.00 0.32 0.20 93 1025.2
20260507093016 52 298 1.0 3.0 0.00 0.32 0.20 93 1025.2
20260507092016 52 315 0.0 1.0 0.01 0.32 0.20 92 1025.4
20260507091017 52 315 1.0 1.0 0.01 0.32 0.20 92 1025.0
20260507090014 52 326 2.0 3.0 0.02 0.32 0.20 92 1024.5
20260507085017 52 337 2.0 4.0 0.02 0.32 0.20 92 1024.6
20260507084017 52 321 1.0 3.0 0.02 0.32 0.20 92 1024.5
20260507082016 52 299 0.0 3.0 0.02 0.31 0.19 92 1024.7
20260507081016 52 315 2.0 4.0 0.05 0.31 0.19 92 1024.8
20260507080017 52 331 2.0 5.0 0.09 0.30 0.18 92 1025.1
20260507075016 52 329 1.0 2.0 0.12 0.30 0.18 92 1024.6
20260507074017 52 324 2.0 6.0 0.14 0.30 0.18 92 1024.7
20260507073114 52 318 3.0 7.0 0.14 0.28 0.17 92 1024.5
20260507072116 52 331 2.0 3.0 0.17 0.28 0.17 91 1024.5
20260507071114 51 321 2.0 3.0 0.14 0.26 0.14 90 1024.6
20260507070117 51 297 4.0 7.0 0.09 0.21 0.09 89 1024.4
20260507065117 52 318 1.0 4.0 0.06 0.18 0.06 89 1024.3
20260507064214 52 302 4.0 9.0 0.05 0.17 0.05 88 1023.6
20260507063216 52 329 3.0 5.0 0.03 0.15 0.03 87 1024.5
20260507062216 52 287 2.0 4.0 0.01 0.13 0.00 85 1024.7
20260507061315 53 333 3.0 4.0 0.00 0.12 0.00 83 1024.5
20260507060316 53 294 3.0 7.0 0.00 0.12 0.00 86 1023.6
20260507060217 53 322 3.0 5.0 0.00 0.12 0.00 86 1023.6
20260507055214 54 307 3.0 7.0 0.00 0.12 0.00 87 1023.8
20260507054216 54 297 3.0 4.0 0.00 0.12 0.00 87 1023.5
20260507053114 56 305 2.0 3.0 0.00 0.12 0.00 89 1023.9
20260507052118 58 313 3.0 4.0 0.00 0.12 0.00 90 1023.9
20260507051215 58 292 2.0 3.0 0.00 0.12 0.00 90 1023.5
20260507045215 58 292 2.0 3.0 0.00 0.12 0.00 90 1023.9
20260507044217 59 292 1.0 2.0 0.00 0.12 0.00 90 1023.9
20260507043217 59 292 2.0 2.0 0.00 0.12 0.00 91 1024.4
20260507042216 60 292 0.0 1.0 0.00 0.12 0.00 92 1024.2
20260507041215 60 202 0.0 0.0 0.01 0.12 0.00 91 1024.2
20260507034326 59 202 0.0 0.0 0.08 0.12 0.12 90 1024.2
20260507033423 59 202 0.0 0.0 0.08 0.12 0.12 91 1024.2
20260507032425 59 202 0.0 0.0 0.08 0.12 0.12 90 1024.0
20260507031427 59 202 0.0 0.0 0.07 0.11 0.11 89 1024.1
20260507030425 59 202 0.0 0.0 0.06 0.10 0.10 89 1024.2
20260507025424 58 202 0.0 0.0 0.03 0.07 0.06 89 1024.1
20260507023524 58 202 0.0 0.0 0.00 0.04 0.04 88 1024.3
20260507022525 58 202 0.0 2.0 0.00 0.04 0.04 88 1024.1
20260507020524 57 202 0.0 0.0 0.00 0.04 0.04 88 1024.5
20260507015525 57 202 0.0 0.0 0.00 0.04 0.04 88 1024.3
20260507014624 57 202 0.0 0.0 0.00 0.04 0.04 88 1024.2
20260507013624 57 202 0.0 0.0 0.00 0.04 0.04 88 1024.3
20260507012624 57 202 0.0 0.0 0.00 0.04 0.04 87 1024.3
20260507011724 57 202 0.0 1.0 0.00 0.04 0.04 87 1024.3
20260507010723 57 202 0.0 0.0 0.00 0.04 0.04 87 1024.3
20260507005724 58 202 0.0 0.0 0.00 0.04 0.04 87 1024.2
20260507004725 58 202 0.0 0.0 0.00 0.04 0.04 87 1024.2
20260507003725 58 202 0.0 0.0 0.00 0.04 0.04 86 1024.4
20260507002823 58 202 0.0 0.0 0.00 0.04 0.04 86 1024.3
20260507001826 58 202 0.0 1.0 0.00 0.04 0.04 86 1024.2
20260507000825 58 202 0.0 0.0 0.00 0.04 0.04 86 1024.3
20260506235925 58 202 0.0 0.0 0.00 0.04 0.04 86 1024.2
20260506235023 58 202 0.0 0.0 0.00 0.04 0.04 86 1024.2
20260506234024 58 180 0.0 0.0 0.00 0.04 0.04 86 1024.0
20260506233925 58 180 0.0 0.0 0.00 0.04 0.04 86 1024.1
20260506232923 58 180 0.0 1.0 0.00 0.04 0.04 86 1024.0
20260506231924 59 180 1.0 2.0 0.00 0.04 0.04 86 1023.9
20260506225023 59 202 0.0 1.0 0.00 0.04 0.04 86 1023.8
20260506224025 59 225 1.0 2.0 0.00 0.04 0.04 85 1023.7
20260506223025 59 202 0.0 2.0 0.00 0.04 0.04 85 1023.7
20260506222025 59 187 0.0 2.0 0.00 0.04 0.04 85 1023.6
20260506221025 59 157 0.0 0.0 0.00 0.04 0.04 86 1023.6
20260506220023 59 166 1.0 3.0 0.00 0.04 0.04 86 1023.4
20260506215024 60 196 0.0 2.0 0.00 0.04 0.04 85 1023.4
20260506214024 60 180 1.0 3.0 0.00 0.04 0.04 86 1023.3
20260506213023 60 206 1.0 4.0 0.00 0.04 0.04 87 1023.2
20260506212024 60 202 0.0 2.0 0.00 0.04 0.04 88 1023.1
20260506211024 59 202 1.0 3.0 0.00 0.04 0.04 88 1023.1
20260506210024 59 202 0.0 1.0 0.00 0.04 0.04 89 1023.2
20260506205023 58 173 1.0 2.0 0.00 0.04 0.04 88 1023.1
20260506202024 58 206 1.0 4.0 0.00 0.04 0.04 88 1023.7
20260506200123 58 176 1.0 2.0 0.00 0.04 0.04 87 1023.9
20260506194224 58 172 1.0 2.0 0.00 0.04 0.04 87 1023.9
20260506193323 59 197 0.0 1.0 0.00 0.04 0.04 87 1023.7
20260506192324 59 164 1.0 2.0 0.00 0.04 0.04 87 1023.9
20260506191324 59 168 1.0 4.0 0.00 0.04 0.04 88 1023.8
20260506190423 59 184 1.0 5.0 0.00 0.04 0.04 88 1023.9
20260506185423 59 185 1.0 4.0 0.01 0.04 0.04 89 1024.1
20260506184424 59 202 1.0 2.0 0.01 0.04 0.04 89 1024.5
20260506183524 59 152 2.0 4.0 0.02 0.04 0.04 89 1024.5
20260506182525 59 180 1.0 3.0 0.02 0.04 0.04 89 1024.7
20260506182425 59 213 1.0 3.0 0.02 0.04 0.04 89 1024.6
20260506181426 59 179 0.0 1.0 0.04 0.04 0.04 88 1024.7
20260506180524 58 138 1.0 2.0 0.04 0.04 0.04 88 1024.9
20260506175525 58 192 1.0 3.0 0.04 0.04 0.03 87 1024.9
20260506174624 59 207 0.0 3.0 0.03 0.03 0.03 87 1025.2
20260506173626 59 177 1.0 3.0 0.03 0.03 0.02 86 1025.3
20260506172625 59 188 0.0 2.0 0.02 0.02 0.02 85 1025.5
20260506170726 60 212 2.0 5.0 0.00 0.00 0.00 81 1025.9
20260506165725 60 175 0.0 1.0 0.00 0.00 0.00 79 1026.0
20260506164724 61 202 0.0 0.0 0.00 0.00 0.00 78 1026.0
20260506163723 61 214 0.0 1.0 0.00 0.00 0.00 77 1026.0
20260506162724 61 159 1.0 2.0 0.00 0.00 0.00 76 1026.3
20260506161724 62 137 1.0 4.0 0.00 0.00 0.00 74 1026.1
20260506160725 62 158 1.0 2.0 0.00 0.00 0.00 74 1026.3
20260506155823 62 190 1.0 2.0 0.00 0.00 0.00 74 1026.3
20260506154824 63 177 1.0 4.0 0.00 0.00 0.00 74 1026.3
20260506153825 63 190 2.0 6.0 0.00 0.00 0.00 73 1026.6
20260506152823 63 202 2.0 5.0 0.00 0.00 0.00 74 1026.7
20260506151826 62 171 1.0 4.0 0.00 0.00 0.00 74 1026.6
20260506150924 62 151 1.0 3.0 0.00 0.00 0.00 74 1026.5
20260506145925 62 135 1.0 3.0 0.00 0.00 0.00 74 1026.3
20260506144924 63 138 2.0 3.0 0.00 0.00 0.00 73 1026.3
20260506143923 63 195 1.0 3.0 0.00 0.00 0.00 72 1026.6
20260506142924 64 215 1.0 3.0 0.00 0.00 0.00 71 1026.5
20260506140923 64 168 1.0 3.0 0.00 0.00 0.00 72 1026.6
20260506135924 63 185 2.0 4.0 0.00 0.00 0.00 72 1026.8
20260506134923 63 202 1.0 3.0 0.00 0.00 0.00 73 1027.0
20260506133923 63 189 1.0 3.0 0.00 0.00 0.00 74 1026.8
20260506132924 62 213 2.0 4.0 0.00 0.00 0.00 75 1026.7
20260506132023 62 179 2.0 3.0 0.00 0.00 0.00 75 1026.8
20260506131024 62 169 2.0 4.0 0.00 0.00 0.00 74 1026.7
20260506130024 63 177 1.0 4.0 0.00 0.00 0.00 72 1026.7
20260506125123 64 184 1.0 4.0 0.00 0.00 0.00 72 1026.5
20260506124125 63 187 1.0 3.0 0.00 0.00 0.00 72 1026.6
20260506123125 63 193 1.0 5.0 0.00 0.00 0.00 73 1027.0
20260506122224 63 200 1.0 2.0 0.00 0.00 0.00 74 1027.2
20260506121224 62 191 1.0 3.0 0.00 0.00 0.00 75 1027.0
20260506120322 62 187 1.0 3.0 0.00 0.00 0.00 76 1027.2
20260506115422 62 186 2.0 4.0 0.00 0.00 0.00 77 1026.9